Skip Page Navigation
NASA JPL Caltech
NASA Logo - Jet Propulsion Laboratory + View the NASA Portal
+ Near-Earth Object (NEO) Program
Search JPL
JPL Home Earth Solar System Stars & Galaxies Technology
JPL Solar System Dynamics
BODIES ORBITS EPHEMERIDES TOOLS PHYSICAL DATA DISCOVERY FAQ SITE MAP
JPL Small-Body Database Browser
Search: [ help ]  
(2003 GY)
Classification: Apollo [NEO, PHA]          SPK-ID: 3152312
Ephemeris | Orbit Diagram | Orbital Elements | Physical Parameters | Close-Approach Data ]

[ hide orbit diagram ]
Orbit Diagram
Note: Make sure you have Java enabled on your browser to see the applet. This applet is provided as a 3D orbit visualization tool. The applet was implemented using 2-body methods, and hence should not be used for determining accurate long-term trajectories (over several years or decades) or planetary encounter circumstances. For accurate long-term ephemerides, please instead use our Horizons system.
Orbit Viewer

Additional Notes: the orbits shown in the applet are color coded. The planets are white lines, and the asteroid/comet is a blue line. The bright white line indicates the portion of the orbit that is above the ecliptic plane, and the darker portion is below the ecliptic plane. Likewise for the asteroid/comet orbit, the light blue indicates the portion above the ecliptic plane, and the dark blue the portion below the ecliptic plane.

Orbit Viewer applet originally written and kindly provided by Osamu Ajiki (AstroArts), and further modified by Ron Baalke (JPL).


Orbital Elements at Epoch 2456400.5 (2013-Apr-18.0) TDB
Reference: JPL 57 (heliocentric ecliptic J2000)
 Element Value Uncertainty (1-sigma)   Units 
e .3173625729652287 1.2828e-08  
a 1.379941200179367 1.5645e-08 AU
q .9419995103497171 1.779e-08 AU
i 4.668079318995288 5.5953e-06 deg
node 322.0220394411594 4.073e-05 deg
peri 333.9486615345459 4.2737e-05 deg
M 1.883603091152395 3.8628e-05 deg
tp 2456397.402037242034
(2013-Apr-14.90203724)
6.3479e-05 JED
period 592.092144096787
1.62
1.0069e-05
2.757e-08
d
yr
n .6080134715334986 1.034e-08 deg/d
Q 1.817882890009016 2.061e-08 AU
  Orbit Determination Parameters
   # obs. used (total)      248  
   # delay obs. used      1  
   # Doppler obs. used      2  
   data-arc span      2870 days (7.86 yr)  
   first obs. used      2003-04-05  
   last obs. used      2011-02-12  
   planetary ephem.      DE405  
   SB-pert. ephem.      SB405-CPV-2  
   condition code      0  
   fit RMS      .52604  
   data source      ORB  
   producer      Otto Matic  
   solution date      2011-Sep-14 19:50:12  

Additional Information
 Earth MOID = .0226125 AU 
 T_jup = 4.744 
[ show covariance matrix ]

Ephemeris | Orbit Diagram | Orbital Elements | Physical Parameters | Close-Approach Data ]

Physical Parameter Table
Parameter Symbol Value Units Sigma Reference Notes
absolute magnitude H 20.056 mag .54886 57 autocmod 2.5a

[ show close-approach data ]
Ephemeris | Orbit Diagram | Orbital Elements | Physical Parameters | Close-Approach Data ]
ABOUT SSD CREDITS/AWARDS PRIVACY/COPYRIGHT GLOSSARY LINKS
FirstGov 2013-Jun-20 10:24 UT
(server date/time)  
NASA Home Page
Site Manager:   Donald K. Yeomans
Webmaster  Alan B. Chamberlin